Starlink 32413

operational
NORAD ID: 61590 Int'l Des: 2024-187 Owner: SPXS Country: US Constellation: starlink
LEOCIRCULAR

Starlink 32413について

説明を読み込み中...

リアルタイム位置

3D地球を読み込み中...

次回通過

高度履歴

Altitude vs Time

uPlot chart will show altitude changes over time

軌道要素

1 61590U 24187S 25352.66355331 .00000739 00000-0 37076-4 0 9998
2 61590 53.1599 81.7056 0001179 85.7592 274.3543 15.30195937 66672
Epoch: Dec 18, 2025 • Age: 11 hours

現在のステータス

高度 490.8 km
速度 7.62 km/s
衛星直下点 -44.14°S, 94.17°W
打ち上げ日 Oct 18, 2024
運用期間 1.1 years
タイプ internet

技術仕様

分類 Payload
質量 730.00 kg
乾燥質量 700.00 kg
総質量 730.00 kg
長さ 0.30 m
直径 4.10 m
スパン 29.00 m
形状 Box + pan
製造者 SPXS
バスタイプ Starlink V2M
フェーズステータス In Orbit
所有者/国 SPXS/US

大規模コンステレーション

Loading constellations...